NOAA NWS Hourly Roundups by Site

Regional Weather Roundup for Green Bay, WI

To Select Another Site Choose from List

Select Site:  

000
ASUS43 KGRB 010700
RWRGRB

NORTH-CENTRAL AND NORTHEAST WISCONSIN REGIONAL WEATHER ROUNDUP
NATIONAL WEATHER SERVICE GREEN BAY WI
200 AM CDT THU OCT 01 2020

WIZ005-009-010>012-018-019-010800-
NORTH CENTRAL WISCONSIN

CITY           SKY/WX    TMP DP  RH WIND       PRES   REMARKS
IRONWOOD       CLOUDY    47  42  83 N8        29.83R
MANITOWISH WTR CLOUDY    43  43 100 NW6       29.81R
ARBOR VITAE    CLOUDY    45  42  89 NW6       29.81R
EAGLE RIVER    CLOUDY    45  44  97 W5        29.79R
LAND O LAKES   MOCLDY    45  43  95 NW5       29.80R
RHINELANDER    CLOUDY    43  41  93 W6        29.81R
PHILLIPS       CLOUDY    45  43  93 W3        29.82S
ANTIGO         MOCLDY    43  41  94 W10       29.81R
TOMAHAWK       CLOUDY    43  40  90 W3        29.82R
MERRILL        CLOUDY    45  42  90 W6        29.81R
$$

WIZ013-073-010800-
NORTHEAST WISCONSIN

CITY           SKY/WX    TMP DP  RH WIND       PRES   REMARKS
IRON MOUNTAIN  CLEAR     43  39  86 NW6       29.75R
MARINETTE        N/A     46  43  89 W5        29.77S
OCONTO         PTCLDY    43  41  92 W6        29.79R
$$

WIZ017-030-035>037-045-010800-
CENTRAL WISCONSIN

CITY           SKY/WX    TMP DP  RH WIND       PRES   REMARKS
MEDFORD        CLOUDY    43  42  95 W6        29.84R
WAUSAU         CLOUDY    46  45  96 W8        29.81R
MOSINEE        CLOUDY    43  41  93 W9        29.84R
MARSHFIELD     CLOUDY    46  42  86 NW8       29.84R
WISC RAPIDS    CLOUDY    46  41  82 W7        29.86R
STEVENS POINT  CLOUDY    44  41  89 NW5       29.84R
WAUPACA        MOCLDY    47  43  85 W8        29.83S
SHAWANO        PTCLDY    45  42  90 W5        29.80R
CLINTONVILLE   PTCLDY    43  40  89 W6        29.81S
WAUTOMA        MOCLDY    46  42  86 W10       29.85S
$$

WIZ038-039-048-051-010800-
FOX VALLEY

CITY           SKY/WX    TMP DP  RH WIND       PRES   REMARKS
NWS GREEN BAY  PTCLDY    45  40  82 W9        29.80R
APPLETON       PTCLDY    43  37  81 W8        29.81R
OSHKOSH        PTCLDY    46  41  82 W7        29.83R
FOND DU LAC    PTCLDY    47  42  83 W9        29.84R
$$

WIZ022-050-052-010800-
EAST CENTRAL WISCONSIN

CITY           SKY/WX    TMP DP  RH WIND       PRES   REMARKS
EPHRAIM        FAIR      47  42  84 NW8       29.75S
WASHINGTON ISL NOT AVBL
STURGEON BAY   PTCLDY    48  44  86 W6        29.78R
MANITOWOC      CLEAR     47  42  83 W10       29.81R
SHEBOYGAN      CLEAR     48  42  80 W8        29.82R
$$

LMZ563-521-522-541>543-010800-
LAKESHORE

STATION/POSITION TIME  TEMP    WIND        PRES    VSBY  WAVE
                       AIR SEA DIR/SP/G                  HT/PER
                 (UTC) (F)     (DEG/KT/KT) (MB)    (MI)  (FT/S)
SHEBOYGAN LKSHOR 0600   49     270/ 10/ 12   N/A
KEWAUNEE LKSHORE 0630   48     290/  5/  8 1008.1R
N MID LAKE BUOY  0640   54 60  310/ 17/ 23 1006.7R
S GREEN BAY BUOY 0630   50     280/ 17/ 19 1008.3R
SISTER BAY LKSHO 0628   52     300/ 18/ 21   N/A
CHAMBERS ISLAND  0640   50     250/  4/ 12   N/A
MENOMINEE LKSHOR 0630   48 62  270/  6/  9 1007.8R
$$


 

View Past Reports for Green Bay, WI.

Products Courtesy of NOAA-NWS
NWS Information Parsing Script by Ken True at Saratoga Weather - Script by SE Lincoln Weather.